MOLNIYA 3-39 1 20813U 90084A 09184.60608337 .38978363 43314-5 75671-3 0 2933 2 20813 062.3565 054.0861 4101758 271.0401 081.9584 07.58991392137973 MOLNIYA 1-80 1 21118U 91012A 09183.40204623 +.00001602 +00000-0 +10000-3 0 06594 2 21118 062.0293 266.1183 7275036 252.7389 021.9731 02.00389487134642 MOLNIYA 3-40 1 21196U 91022A 09183.38702426 .00001415 00000-0 10000-3 0 9766 2 21196 061.8176 248.1692 7260152 255.3688 020.7576 02.00587766133940 MOLNIYA 1-81 1 21426U 91043A 09183.19009947 +.00000129 +00000-0 +10000-3 0 01046 2 21426 062.0240 237.6911 7259496 265.9202 016.3434 02.00625224132200 MOLNIYA 3-41 1 21706U 91065A 09182.68789578 -.00000373 +00000-0 -68241-4 0 03854 2 21706 062.3106 059.6269 7478070 276.1390 011.4548 02.00555886130336 MOLNIYA 1-83 (Decayed 2007-07-01) 1 21897U 92011A 07182.54228483 .99999999 39507-5 71364-3 0 6569 2 21897 062.0262 125.4048 0862131 260.6337 095.0674 14.64030781113010 MOLNIYA 1-84 (Decayed 2008-04-04) 1 22068U 92050A 08090.07126951 .00081002 20360-6 10000-3 0 2504 2 22068 061.4234 120.4751 4232825 269.9804 042.9330 07.21307907115547 MOLNIYA 3-42 1 22178U 92067A 09183.06068837 +.00000118 +00000-0 -90640-2 0 07229 2 22178 061.9352 191.1217 7235503 264.1664 017.1428 02.00601568122471 MOLNIYA 3-43 (Decayed 2008-11-08) 1 22255U 92085A 08313.00370478 .39506582 68961-5 10000-3 0 2321 2 22255 063.0849 336.0925 0327870 259.1187 097.3762 15.94406168118217 MOLNIYA 1-86 1 22671U 93035A 09183.12818141 +.00001540 +00000-0 +13508-3 0 01447 2 22671 062.0415 140.9421 7306110 269.6830 014.6078 02.03224083118326 MOLNIYA 3-45 1 22729U 93049A 09184.16582536 -.00001408 00000-0 00000+0 0 8368 2 22729 062.6368 281.7956 7345176 252.8217 021.1984 02.00858805116574 MOLNIYA 1-87 1 22949U 93079A 09183.89387209 .00000506 00000-0 10000-3 0 3484 2 22949 063.8633 057.3279 7232440 249.2635 024.3072 02.00703764113836 MOLNIYA 3-46 (Decayed 2009-02-10) 1 23211U 94051A 09041.46604329 .99999999 60629-5 70923-3 0 6302 2 23211 062.1686 108.0618 0618716 264.3573 240.5314 15.21977803107058 MOLNIYA 1-88 1 23420U 94081A 09183.24143936 +.00000901 +00000-0 +11554-3 0 09625 2 23420 062.0256 232.7858 7365246 262.4166 016.7038 02.02257009106705 MOLNIYA 3-47 1 23642U 95042A 09182.63322191 -.00000425 +00000-0 +10000-3 0 03949 2 23642 063.5307 038.2587 7346467 253.5796 020.6390 02.00666313101830 MOLNIYA 1-89 1 24273U 96045A 09183.34572566 .00080536 85799-6 11613-3 0 487 2 24273 062.9617 319.6098 7161447 255.4701 021.7448 02.50512147 94805 MOLNIYA 3-48 (Decayed 2007-10-18) 1 24640U 96060A 07291.13395417 .99999999 83187-5 52459-3 0 1139 2 24640 063.3472 327.2473 0128626 257.0956 102.6261 16.43397936 81211 MOLNIYA 1-90 1 24960U 97054A 09183.81280345 -.00000280 +00000-0 +10000-3 0 04796 2 24960 063.8279 084.8534 7272056 254.1233 059.9132 02.00616150086306 MOLNIYA 3-49 1 25379U 98040A 09183.68642006 .00000147 00000-0 54639-3 0 8878 2 25379 063.8618 052.3211 7445103 254.4234 019.1905 02.00672166 80634 MOLNIYA 1-91 1 25485U 98054A 09183.75306260 +.00000203 +00000-0 +10000-3 0 06109 2 25485 063.8453 177.9098 6798163 260.8639 184.7362 02.00592869078827 MOLNIYA 3-50 1 25847U 99036A 09183.29574735 +.00000325 +00000-0 +10000-3 0 06559 2 25847 063.7449 268.9738 7023126 266.5442 018.1771 02.00598662073153 MOLNIYA 3-51 1 26867U 01030A 09183.64495304 +.00000383 +00000-0 +00000-0 0 08712 2 26867 064.0683 200.8575 6986991 267.0571 050.6647 02.00568556058278 MOLNIYA 1-92 1 27707U 03011A 09183.64235733 +.00000416 +00000-0 +65181-1 0 03102 2 27707 064.8121 204.7785 6973465 264.4714 042.4718 02.00671381045810 MOLNIYA 3-53 1 27834U 03029A 09183.89939156 +.00000250 +00000-0 +00000-0 0 01202 2 27834 064.8135 204.5624 6971340 265.0421 232.6701 02.00609332044235 MOLNIYA 1-93 1 28163U 04005A 09183.89987041 +.00000031 +00000-0 +10000-3 0 09534 2 28163 064.9134 286.3711 7195780 276.0641 062.9307 02.00666192039359